DECAYED

COSMOS 2251 DEB, 36625 (Decayed)

Orbit data source: Space-Track

COSMOS 2251 DEB, 36625 was space debris in LEO originally from a launch on Wed, 16 Jun 1993 UTC launched from the Plesetsk Missile And Space Complex (PKMTR). The debris from Iridium 33, an American commercial communications satellite, has been tracked extensively since its accidental collision with the defunct Russian satellite Cosmos 2251 in 2009. This event, occurring at high speed in low Earth orbit (LEO), generated thousands of pieces of space debris, significantly increasing the risk of further collisions. The Iridium 33 debris cloud has impacted space traffic management and orbital debris mitigation strategies, making it a subject of ongoing study in space situational awareness.

Not visible in the next 10 days
Identifier
36625, 1993-036BEP
Orbit
Decayed
Country
Flag of CISCIS
Related business
Manufacturer
Unknown
Mission
Decayed spacecraft
Bus & Motor
Unknown
Mass
Unknown
Launch date (UTC)
1993-06-16 (33 years ago)
Launch vehicle
Unknown
Launch site
Plesetsk Missile And Space Complex (PKMTR)
Object type
Payload
Rocket body
Debris
Shape & HBR
Unknown shape, 0.1 m
Radar Cross Section
Small (<0.1 m²)

Expand to show TLE details & history
Last TLE update: 1 year ago

TLE from 1 year ago
0 COSMOS 2251 DEB
1 36625U 93036BEP 24365.69107133  .03038912  77509-2  10778-1 0  9993
2 36625  73.8288 252.1161 0012033 163.6933 196.4690 15.90706528 40314
Epoch: 2024-12-30T16:35Z
TLE epoch observation values (Epoch: 2024-12-30T16:35:08.562Z)
Latitude
-0.00003°
Longitude
-96.27901°
Altitude
310.796 km
Speed
7.717 km/s
True Right ascension
16h 48m 27s
True Declination
0° 00' 00"
Sunlit
Object was in daylight at epoch
Visualization orbit readout
Latitude
Unknown
Longitude
Unknown
Altitude
Unknown
Speed
Unknown
Apparent Right ascension
Unknown
Apparent Declination
Unknown
Sunlit
N/A
Visualization observer readout
Local Sidereal Time
17:47:32
Azimuth
Unknown
Elevation
Unknown
Doppler factor
Unknown
Orbital elements
Apogee altitude
305.813 km
Perigee altitude
289.746 km
Semi-major axis
6,675.916 km
Eccentricity
0.0012
Inclination
73.8288°
RAAN
252.1161°
Arg. of periapsis
163.6933°
True anomaly
196.42997°
Mean anomaly
196.469°
Eccentric anomaly
196.44948°
Mean motion
3.97903 °/min
Orbital period
90.47 mins
BSTAR
0.010778
Loading maneuver chart data...
Computing Atmospheric mass density...

Documentation

Showing up to 5 results
|